Location: Corralito
(10.2667°N, 66.9500°W)
Time: 18:26:33
(UTC+00:00)

YAOGAN 1 - Pass Details

Date: 23 March 2023
Orbit: 615 x 617 km, 97.8° (Epoch: 09 June)

Event Time Altitude Azimuth Distance (km) Brightness Sun altitude
Rises 23:06:17 0° 149° (SSE) 2,874 5.7 -7.6°
Reaches altitude 10° 23:08:39 10° 139° (SE) 1,969 4.7 -8.2°
Maximum altitude 23:12:25 30° 77° (ENE) 1,093 3.3 -9.1°
Drops below altitude 10° 23:16:11 10° 15° (NNE) 1,968 5.0 -10.1°
Sets 23:18:33 0° 5° (N) 2,873 6.0 -10.7°
